Regional Weather Roundup
Issued by NWS

Home | Current Version | Previous Version | Text Only | Print | Product List | Glossary Off
Versions: 1 2 3 4 5 6 7 8 9 10 11 12 13 14 15 16 17 18 19 20 21 22 23 24 25 26 27 28 29 30 31 32 33 34 35 36 37 38 39 40 41 42 43 44 45 46 47 48 49 50

012
ASUS45 KBOU 231907
RWRCO

WEATHER ROUNDUP FOR COLORADO
NATIONAL WEATHER SERVICE DENVER/BOULDER CO
1200 PM MST MON JAN 23 2017

NOTE: "FAIR" INDICATES FEW OR NO CLOUDS BELOW 12000 FEET WITH NO
SIGNIFICANT WEATHER AND/OR OBSTRUCTIONS TO VISIBILITY.

COZ001>005-013-030-031-232000-
...NORTHWEST COLORADO...

CITY           SKY/WX    TMP DP  RH WIND       PRES   REMARKS
CRAIG          PTSUNNY   38  25  59 SW17G26   29.57F
HAYDEN         CLOUDY    34  23  64 NE6       29.57F WCI  29
MEEKER         CLOUDY    39  28  64 MISG      29.58F
MOUNT WERNER   NOT AVBL
STEAMBOAT SPGS PTSUNNY   31  24  75 CALM      29.58F
WALDEN           N/A     30  25  80 S13       29.60F WCI  20
$$

COZ006>008-011-232000-
...WEST CENTRAL VALLEYS...

CITY           SKY/WX    TMP DP  RH WIND       PRES   REMARKS
GRAND JUNCTION FAIR      48  31  51 SW16G24   29.60F
MONTROSE       PTSUNNY   46  30  53 SW22G33   29.66F
EAGLE          CLOUDY    34  28  80 S7        29.64F WCI  28
RIFLE          CLOUDY    38  32  79 E5        29.63F
DELTA          PTSUNNY   51  32  48 SW18G30   29.66F
NUCLA          CLOUDY    41  28  60 S18G30    29.71F
$$

COZ017>023-064>068-232000-
...SOUTHWEST COLORADO...

CITY           SKY/WX    TMP DP  RH WIND       PRES   REMARKS
DURANGO        CLOUDY    30  24  78 NE3       29.83F
CORTEZ         CLOUDY    39  29  67 S23G31    29.77F
PAGOSA SPRINGS CLOUDY    29  26  88 S5        29.84F WCI  24
TELLURIDE      NOT AVBL
WOLF CREEK PAS CLOUDY    12  12 100 SW21G31   29.76F WCI  -6
$$

COZ009-010-012-014-032>034-037-058>063-232000-
...CENTRAL COLORADO...

CITY           SKY/WX    TMP DP  RH WIND       PRES   REMARKS
ASPEN          FLURRIES  33  28  81 S7        29.63F WCI  27
BUENA VISTA    CLOUDY    32  20  62 S3        29.67F
COPPER MTN     NOT AVBL
BERTHOUD PASS  CLOUDY    14   3  62 MISG      29.60F
COTTONWOOD PAS CLOUDY    28  25  86 SE7       29.65F WCI  21
GUNNISON       PTSUNNY   29  20  69 CALM      29.68F
KREMMLING      CLOUDY    41  30  65 SW8       29.63F
LEADVILLE      SNOW      19  17  92 S8        29.62F VSB 1/2 WCI   9
MONARCH PASS   CLOUDY    18  14  86 NW8       29.76F WCI   7
SALIDA         CLOUDY    35  21  56 S18G25    29.75F WCI  24
SUNLIGHT         N/A     21  21 100 SW21G39   29.64F WCI   6
WILKERSON PASS LGT SNOW N/A N/A N/A S8        29.69F VSB 1
$$

COZ069>075-232000-
...SAN LUIS VALLEY/SANGRE DE CRISTO MOUNTAINS...

CITY           SKY/WX    TMP DP  RH WIND       PRES   REMARKS
ALAMOSA        FAIR      33  27  78 S29G40    29.75F WCI  19
LA VETA PASS   CLOUDY    27  21  80 NE33G56   29.69F WCI   9
SAGUACHE       PTSUNNY   30  19  64 W5        29.74F WCI  25
$$

COZ035-036-038>040-232000-
...NORTHERN COLORADO FRONT RANGE...

CITY           SKY/WX    TMP DP  RH WIND       PRES   REMARKS
DENVER INTL AP FAIR      53  20  27 SW14      29.56F
DMNS CITY PARK   N/A     54  18  24 SW6G14    29.55F
AURORA         MOSUNNY   51  20  29 SW14      29.57F
FRONT RANGE AP NOT AVBL
ERIE MUNI ARPT CLOUDY    49  21  34 CALM      29.56F
BOULDER MUN AP PTSUNNY   52  25  35 SE7       29.55F
CENTENNIAL     FAIR      49  20  31 SW14      29.57F
BROOMFIELD     PTSUNNY   52  21  30 NW8       29.58F
FORT COLLINS   NOT AVBL
LONGMONT       PTSUNNY   55  23  29 S14       29.56F
$$

COZ041-046-047-076>085-087-088-232000-
...PIKES PEAK/PALMER DIVIDE AND SOUTHERN FOOTHILLS...

CITY           SKY/WX    TMP DP  RH WIND       PRES   REMARKS
COLO. SPRINGS  FAIR      51  16  24 S21G29    29.63F
A. F. ACADEMY  FAIR      50  12  22 SW13G23   29.61F
SCHRIEVER AFB  NOT AVBL
ELLICOTT       FAIR     N/A N/A N/A SW20G29   29.62F
FALCON         FAIR      47  14  25 S23       29.64F
FORT CARSON    FAIR      52  18  25 S20       29.61F
LIMON          FAIR      53  19  26 SW24G33   29.57F
MONUMENT HILL  FAIR      43  18  36 SW18G28   29.62F
TRINIDAD       FAIR      45  25  45 SW17G33   29.70F
$$

COZ042>045-048>051-090-091-232000-
...NORTHEAST COLORADO...

CITY           SKY/WX    TMP DP  RH WIND       PRES   REMARKS
GREELEY ARPT   NOT AVBL
AKRON          FAIR      45  22  40 NW10      29.58F
BURLINGTON     FAIR      54  29  38 SW14      29.59F
WRAY           FAIR      45  27  49 NW5       29.61F
STERLING       FAIR      45  27  49 CALM      29.58F
HOLYOKE        FAIR      45  28  53 SW3       29.61F
FORT MORGAN    FAIR      43  22  42 NW3       29.59F
$$

COZ086-089-092>099-232000-
...SOUTHEAST COLORADO...

CITY           SKY/WX    TMP DP  RH WIND       PRES   REMARKS
PUEBLO         FAIR      55  24  30 S23G32    29.64F
LA JUNTA       FAIR      52  28  39 SW26G33   29.63F
LAMAR          FAIR      54  29  38 W18G28    29.61F
SPRINGFIELD      N/A     61  19  19 W30G45    29.66F
$$




USA.gov is the U.S. government's official web portal to all federal, state and local government web resources and services.